THORAD DELTA 1 DEB, 8136

Orbit data source: Space-Track

THORAD DELTA 1 DEB, 8136 is space debris in SSO originally from a launch on Fri, 15 Nov 1974 UTC launched from the Air Force Western Test Range (AFWTR). Debris objects in space refer to the collection of defunct objects orbiting the Earth. Examples of debris include non-operational satellites, rocket bodies, and fragments generated from explosions, collisions, or faulty payload assembly.

Loading next visibility...
Identifier
8136, 1974-089E
Orbit
SSO
Country
Flag of USUS
Related business
Manufacturer
Unknown
Mission
Spacecraft
Bus & Motor
Unknown
Mass
Unknown
Launch date (UTC)
1974-11-15 (51 years ago)
Launch vehicle
Unknown
Launch site
Air Force Western Test Range (AFWTR)
Object type
Payload
Rocket body
Debris
Shape & HBR
Unknown shape, 2.4 m
Radar Cross Section
Large (>1 m²)

Expand to show TLE details & history
Last TLE update: 20 hours ago

TLE from 20 hours ago
0 THORAD DELTA 1 DEB
1 08136U 74089E   25287.95140164 -.00000020  00000-0  11742-3 0  9991
2 08136 101.0536 286.6126 0074009 191.3999 197.3775 12.64799878 74784
Epoch: 2025-10-14T22:50Z
TLE epoch observation values (Epoch: 2025-10-14T22:50:01.101Z)
Latitude
27.99072°
Longitude
-85.55485°
Altitude
1,461.393 km
Speed
7.109 km/s
True Right ascension
18h 42m 43s
True Declination
27° 51' 40"
Sunlit
Object was in daylight at epoch
Visualization orbit readout
Latitude
Unknown
Longitude
Unknown
Altitude
Unknown
Speed
Unknown
Apparent Right ascension
Unknown
Apparent Declination
Unknown
Sunlit
N/A
Visualization observer readout
Local Sidereal Time
13:04:12
Azimuth
Unknown
Elevation
Unknown
Doppler factor
Unknown
Orbital elements
Apogee altitude
1,458.253 km
Perigee altitude
1,343.112 km
Semi-major axis
7,778.82 km
Eccentricity
0.0074
Inclination
101.0536°
RAAN
286.6126°
Arg. of periapsis
191.3999°
True anomaly
197.12643°
Mean anomaly
197.3775°
Eccentric anomaly
197.25174°
Mean motion
3.16353 °/min
Orbital period
113.8 mins
BSTAR
0.00011742
Loading maneuver chart data...
Computing Atmospheric mass density...

Documentation

Showing up to 5 results
|